User: anonymous   Login
Location: Robledo de Chavela
(40.5014°N, 4.2377°W)
Time: 22:21:45
(UTC+00:00)
Language:

COSMOS 2251 DEB - Orbit

View from above orbital plane
View from above orbital plane
View from above satellite
View from above satellite

Ground track
Ground track

The orbit data is extracted from the following two-line orbital elements,

1 34045U 93036JG  25322.47432257  .00000300  00000-0  11624-3 0  9995
2 34045  74.0397 355.2332 0025165  86.6428  28.4328 14.34050903876854
Epoch (UTC): 18 November 2025 11:23:01
Eccentricity: 0.0025165
inclination: 74.0397°
perigee height: 760 km
apogee height: 796 km
right ascension of ascending node: 355.2332°
argument of perigee: 86.6428°
revolutions per day: 14.34050903
mean anomaly at epoch: 28.4328°
orbit number at epoch: 87685

The dashed part of the orbit path shows where the satellite is in the earth's shadow,  

DLR